Regional Weather Roundup
Issued by NWS

Home | Current Version | Previous Version | Graphics & Text | Print | Product List | Glossary On
Versions: 1 2 3 4 5 6 7 8 9 10 11 12 13 14 15 16 17 18 19 20 21 22 23 24 25 26 27 28 29 30 31 32 33 34 35 36 37 38 39 40 41 42 43 44 45 46 47 48 49 50
000
ASUS43 KLMK 100910
RWRKY
KENTUCKY REGIONAL WEATHER ROUNDUP
NATIONAL WEATHER SERVICE LOUISVILLE KY
400 AM EST WED FEB 10 2016

NOTE "FAIR" INDICATES FEW OR NO CLOUDS BELOW 12,000 FEET
WITH NO SIGNIFICANT WEATHER AND/OR OBSTRUCTIONS TO VISIBILITY.

KYZ001>023-026-027-061>063-070>075-101000-
WESTERN AND SOUTH CENTRAL KENTUCKY

CITY           SKY/WX    TMP DP  RH WIND       PRES   REMARKS
PADUCAH        LGT SNOW  22  16  78 NW10      30.13R WCI  11
HENDERSON      CLEAR     18   7  62 NW15G22   30.11R WCI   3
OWENSBORO      PTCLDY    16   8  70 W9        30.09R WCI   5
HOPKINSVILLE   FLURRIES  20  12  72 NW9       30.10R WCI   9
BOWLING GREEN  CLOUDY    20  13  74 W13       30.08R WCI   7
GLASGOW        CLOUDY    19  13  77 W8        30.04R WCI   8
$$

KYZ024-025-028>034-038-045-046-053-101000-
NORTH CENTRAL KENTUCKY

CITY           SKY/WX    TMP DP  RH WIND       PRES   REMARKS
LOUISVILLE/SDF LGT SNOW  18  13  80 W12       30.02R WCI   5
LOUISVILLE/LOU LGT SNOW  18  11  74 W13       30.02R WCI   5
FORT KNOX      FLURRIES  17  11  77 W10       29.99R WCI   5
$$

KYZ035>037-039>044-047>052-055>060-089>105-101000-
NORTHEAST KENTUCKY

CITY           SKY/WX    TMP DP  RH WIND       PRES   REMARKS
LEXINGTON      LGT SNOW  17  12  80 W9        29.96R WCI   6
COVINGTON      FLURRIES  15   9  76 W10       29.93R WCI   2
FRANKFORT      LGT SNOW  17  11  77 W7        29.97R WCI   8
$$

KYZ054-064>069-076>088-106>120-101000-
SOUTHEAST KENTUCKY

CITY           SKY/WX    TMP DP  RH WIND       PRES   REMARKS
JACKSON        CLOUDY    17   9  70 W6        29.91S WCI   9
LONDON         LGT SNOW  16  11  80 W7        29.96S WCI   6
SOMERSET       FLURRIES  18  12  79 W10       30.02S WCI   6
MIDDLESBORO    LGT SNOW  19  12  74 W3        29.98R
MONTICELLO     FLURRIES  18  10  71 W15G25    30.03R WCI   4
$$




USA.gov is the U.S. government's official web portal to all federal, state and local government web resources and services.